This demonstration page uses our WeatherBlox Daily Observations layout. Learn more.

Left ArrowRight Arrow

41.86663, -103.66717

Hourly Observations for June 15, 2022

Temp ( °F °C ) Dew Point ( °F °C ) Humidity (%) Winds ( mph kmh ) Pressure ( in mb ) Visibility ( mi km ) Precip ( " mm )
12:53 am 00:53 Cloudy 61 16.1 26 -3.3 26 26 NNW 9 15 29.79 1009 10 16 0.00 0.00
1:53 am 01:53 Mostly Cloudy 61 16.1 21 -6.1 21 21 NW 9 15 29.78 1008 10 16 0.00 0.00
2:53 am 02:53 Mostly Cloudy 58 14.4 25 -3.9 28 28 W 8 13 29.78 1009 10 16 0.00 0.00
3:53 am 03:53 Mostly Cloudy 60 15.6 23 -5 24 24 W 10 17 29.78 1008 10 16 0.00 0.00
4:53 am 04:53 Clear 59 15 21 -6.1 23 23 WNW 10 17 29.78 1009 10 16 0.00 0.00
5:53 am 05:53 Sunny 55 12.8 23 -5 29 29 W 7 11 29.82 1010 10 16 0.00 0.00
6:53 am 06:53 Sunny 58 14.4 25 -3.9 28 28 W 5 7 29.83 1010 10 16 0.00 0.00
7:53 am 07:53 Sunny 63 17.2 25 -3.9 24 24 WNW 12 19 29.83 1010 10 16 0.00 0.00
8:53 am 08:53 Sunny 68 20 26 -3.3 21 21 W 14 22 29.85 1011 10 16 0.00 0.00
9:53 am 09:53 Sunny 71 21.7 24 -4.4 17 17 W 28 44 29.84 1010 10 16 0.00 0.00
10:53 am 10:53 Sunny 74 23.3 25 -3.9 16 16 W 20 31 29.81 1010 10 16 0.00 0.00
11:53 am 11:53 Sunny 78 25.6 25 -3.9 14 14 W 18 30 29.79 1009 10 16 0.00 0.00
12:53 pm 12:53 Sunny 80 26.7 25 -3.9 13 13 W 13 20 29.78 1009 10 16 0.00 0.00
1:53 pm 13:53 Sunny 85 29.4 23 -5 10 10 W 25 41 29.75 1007 10 16 0.00 0.00
2:53 pm 14:53 Sunny 85 29.4 23 -5 10 10 W 32 52 29.75 1008 10 16 0.00 0.00
3:53 pm 15:53 Sunny 87 30.6 22 -5.6 9 9 W 25 41 29.74 1007 10 16 0.00 0.00
4:53 pm 16:53 Sunny 87 30.6 22 -5.6 9 9 W 26 43 29.74 1007 10 16 0.00 0.00
5:53 pm 17:53 Sunny 86 30 20 -6.7 9 9 W 21 33 29.77 1008 10 16 0.00 0.00
6:53 pm 18:53 Sunny 85 29.4 22 -5.6 10 10 WNW 17 28 29.79 1009 10 16 0.00 0.00
7:53 pm 19:53 Sunny 80 26.7 24 -4.4 13 13 WNW 9 15 29.82 1010 10 16 0.00 0.00
8:53 pm 20:53 Clear 72 22.2 25 -3.9 17 17 NNW 6 9 29.85 1011 10 16 0.00 0.00
9:53 pm 21:53 Clear 64 17.8 27 -2.8 25 25 NW 5 7 29.89 1012 10 16 0.00 0.00
10:53 pm 22:53 Clear 60 15.6 29 -1.7 31 31 N 8 13 29.93 1013 10 16 0.00 0.00
11:53 pm 23:53 Clear 59 15 31 -0.6 35 35 S 5 7 29.94 1014 10 16 0.00 0.00

Powered by AerisWeather